FW1830 Dunedin FL US current weather conditions

sailwx.info

Wind from 323 at 3 knots gusting 9

Air temperature 11.7° C
Dewpoint 2.4° C

Last reported at 2020-Jan-20 17:01 UTC.
Time now 2020-Jan-20 17:52 UTC

Location: N 28°00' W 082°47'.
View on Google Maps.

See reports from other nearby stations

  
Tides and Currents Weather Stations Pressure Air Temp Water Temp Dewpoint Dewpoint Depression Visibility Wind Speed Wind Dir Waves Ship Positions
date/time (UTC)wind fromknots sea level pressurealtimeterstation pressurevisibilityair tempwater tempwave heightnotes
2020-Jan-20 17:01 323 3 gusting 9 11.7
2020-Jan-20 16:47 331 2 gusting 7 11.7
2020-Jan-20 16:32 296 4 gusting 11 11.1
2020-Jan-20 16:16 331 2 gusting 7 11.1
2020-Jan-20 16:01 005 3 gusting 7 10.6
2020-Jan-20 15:47 333 1 gusting 7 10.0
2020-Jan-20 15:32 028 2 gusting 8 10.0
2020-Jan-20 15:16 298 4 gusting 9 10.0
2020-Jan-20 15:01 022 1 gusting 8 9.4
2020-Jan-20 14:48 291 2 gusting 11 8.9
2020-Jan-20 14:31 272 3 gusting 10 8.9
2020-Jan-20 14:16 015 3 gusting 8 8.3
2020-Jan-20 14:02 023 3 gusting 7 7.8
2020-Jan-20 13:49 030 2 gusting 7 7.8
2020-Jan-20 13:32 044 3 gusting 8 7.2
2020-Jan-20 13:15 340 0 gusting 6 7.2
2020-Jan-20 13:01 019 2 gusting 6 7.2
2020-Jan-20 12:47 351 0 gusting 7 7.2
2020-Jan-20 12:31 355 2 gusting 10 7.8
2020-Jan-20 12:15 005 3 gusting 8 7.8
2020-Jan-20 12:00 315 1 gusting 4 8.3
2020-Jan-20 11:45 360 1 gusting 7 8.3
2020-Jan-20 11:30 344 1 gusting 10 8.9
2020-Jan-20 11:15 034 3 gusting 11 8.9
2020-Jan-20 11:02 038 1 gusting 6 9.4
2020-Jan-20 10:47 355 1 gusting 6 9.4
2020-Jan-20 10:32 032 1 gusting 10 10.0
2020-Jan-20 10:17 005 1 gusting 7 10.0
2020-Jan-20 10:01 025 1 gusting 5 10.6
2020-Jan-20 09:46 005 1 gusting 5 10.6
2020-Jan-20 09:32 019 2 gusting 5 11.1
2020-Jan-20 09:17 005 1 gusting 7 11.1
2020-Jan-20 09:01 351 1 gusting 6 11.7
2020-Jan-20 08:46 331 1 gusting 6 11.7
2020-Jan-20 08:31 323 2 gusting 7 11.7
2020-Jan-20 08:16 330 3 gusting 9 12.2
2020-Jan-20 08:00 005 1 gusting 11 12.2
2020-Jan-20 07:46 051 2 gusting 10 12.8
2020-Jan-20 07:30 011 3 gusting 13 13.3
2020-Jan-20 07:15 009 2 gusting 12 13.3
2020-Jan-20 07:00 024 4 gusting 9 13.9
2020-Jan-20 06:45 336 6 gusting 19 13.9
2020-Jan-20 06:30 351 5 gusting 13 14.4
2020-Jan-20 06:15 013 2 gusting 11 15.0
2020-Jan-20 06:00 022 3 gusting 10 15.6
2020-Jan-20 05:47 321 4 gusting 13 16.1
2020-Jan-20 05:32 318 3 gusting 13 16.7
2020-Jan-20 05:16 341 6 gusting 13 16.7
2020-Jan-20 05:01 005 6 gusting 13 16.7
2020-Jan-20 04:47 022 5 gusting 13 17.2
2020-Jan-20 04:32 301 4 gusting 14 17.2
2020-Jan-20 04:16 303 5 gusting 12 17.2
2020-Jan-20 04:01 360 4 gusting 11 17.8
2020-Jan-20 03:47 005 5 gusting 14 17.8
2020-Jan-20 03:31 299 3 gusting 13 17.8
2020-Jan-20 03:16 028 3 gusting 9 17.8
2020-Jan-20 03:00 018 2 gusting 9 18.3
2020-Jan-20 02:46 348 4 gusting 8 18.3
2020-Jan-20 02:32 241 2 gusting 8 18.3
2020-Jan-20 02:16 275 3 gusting 12 18.3
2020-Jan-20 02:01 338 3 gusting 10 18.9
2020-Jan-20 01:45 360 5 gusting 12 18.9
2020-Jan-20 01:32 038 6 gusting 12 19.4
2020-Jan-20 01:15 343 3 gusting 13 20.6
2020-Jan-20 01:00 328 2 gusting 7 20.6
2020-Jan-20 00:45 290 1 gusting 6 20.6
2020-Jan-20 00:30 293 1 gusting 6 20.6
2020-Jan-20 00:15 309 0 gusting 4 20.6
2020-Jan-20 00:00 317 0 gusting 6 21.1
2020-Jan-19 23:45 303 1 gusting 4 21.1
2020-Jan-19 23:30 285 0 gusting 6 21.1
2020-Jan-19 23:15 300 0 gusting 2 21.7
2020-Jan-19 23:00 311 21.7
2020-Jan-19 22:45 284 1 gusting 6 22.2
2020-Jan-19 22:30 227 1 gusting 5 22.2
2020-Jan-19 22:15 231 1 gusting 6 22.8
2020-Jan-19 22:00 280 2 gusting 6 22.8
2020-Jan-19 21:45 242 3 gusting 7 22.8
2020-Jan-19 21:31 218 1 gusting 10 22.8
2020-Jan-19 21:15 245 3 gusting 8 23.3
2020-Jan-19 21:00 214 3 gusting 10 23.3
2020-Jan-19 20:45 254 3 gusting 9 23.9
2020-Jan-19 20:30 186 1 gusting 5 23.9
2020-Jan-19 20:15 211 1 gusting 5 23.9
2020-Jan-19 20:00 193 1 gusting 7 23.3
2020-Jan-19 19:45 223 0 gusting 7 23.3
2020-Jan-19 19:30 172 2 gusting 12 23.3
2020-Jan-19 19:17 183 1 gusting 9 22.8
2020-Jan-19 19:02 268 0 gusting 6 22.8
2020-Jan-19 18:47 169 1 gusting 3 22.2
2020-Jan-19 18:33 223 0 gusting 8 22.2
2020-Jan-19 18:17 259 3 gusting 8 22.8
2020-Jan-19 18:01 170 1 gusting 6 22.8
2020-Jan-19 17:46 258 1 gusting 7 22.8
2020-Jan-19 17:31 187 1 gusting 8 22.8
2020-Jan-19 17:18 201 1 gusting 7 22.8
2020-Jan-19 17:01 211 0 gusting 7 22.8
2020-Jan-19 16:47 204 3 gusting 11 22.2
2020-Jan-19 16:32 197 0 gusting 5 22.2
2020-Jan-19 16:16 180 1 gusting 7 22.2
2020-Jan-19 16:01 202 1 gusting 5 22.2
2020-Jan-19 15:46 206 1 gusting 3 21.7
2020-Jan-19 15:32 167 1 gusting 6 21.7
2020-Jan-19 15:16 236 0 gusting 3 21.1
2020-Jan-19 15:00 146 20.6
2020-Jan-19 14:46 143 20.6
2020-Jan-19 14:30 143 20.0
2020-Jan-19 14:15 142 20.0
2020-Jan-19 14:00 142 19.4
2020-Jan-19 13:45 142 19.4
2020-Jan-19 13:30 142 19.4
2020-Jan-19 13:15 125 18.9
2020-Jan-19 13:00 125 18.9
2020-Jan-19 12:47 125 18.9
2020-Jan-19 12:32 125 18.9
2020-Jan-19 12:17 125 18.9
2020-Jan-19 12:02 125 18.9
2020-Jan-19 11:46 125 18.9
2020-Jan-19 11:31 126 18.9
2020-Jan-19 11:18 126 18.3
2020-Jan-19 11:02 121 18.3
2020-Jan-19 10:48 090 18.3
2020-Jan-19 10:33 090 18.3
2020-Jan-19 10:02 090 18.3
2020-Jan-19 09:47 090 18.3
2020-Jan-19 09:31 090 18.3
2020-Jan-19 09:17 090 18.3
2020-Jan-19 09:01 090 18.3
2020-Jan-19 08:46 090 18.3
2020-Jan-19 08:31 090 18.3
2020-Jan-19 08:17 090 18.3
2020-Jan-19 08:01 090 18.3
2020-Jan-19 07:47 090 18.3
2020-Jan-19 07:31 114 18.9
2020-Jan-19 07:17 114 18.9
2020-Jan-19 07:00 160 18.9
2020-Jan-19 06:45 160 18.9
2020-Jan-19 06:31 160 18.9
2020-Jan-19 06:15 160 18.9
2020-Jan-19 06:01 167 18.9
2020-Jan-19 05:46 167 18.9
2020-Jan-19 05:30 167 18.9
2020-Jan-19 05:15 215 19.4
2020-Jan-19 05:00 215 19.4
2020-Jan-19 04:45 215 18.9
2020-Jan-19 04:31 215 18.9
2020-Jan-19 04:15 257 18.3
2020-Jan-19 04:01 257 17.8
2020-Jan-19 03:45 257 18.3
2020-Jan-19 03:30 257 18.3
2020-Jan-19 03:15 257 18.3
2020-Jan-19 03:00 257 18.9
2020-Jan-19 02:45 257 18.9
2020-Jan-19 02:30 257 18.9
2020-Jan-19 02:15 257 18.9
2020-Jan-19 02:00 257 18.9
2020-Jan-19 01:45 257 19.4
2020-Jan-19 01:30 257 19.4
2020-Jan-19 01:15 257 20.0
2020-Jan-19 01:00 257 20.0
2020-Jan-19 00:45 257 20.6
2020-Jan-19 00:30 257 20.6
2020-Jan-19 00:15 257 21.1
2020-Jan-19 00:00 257 21.1
2020-Jan-18 23:45 257 21.1
2020-Jan-18 23:30 257 21.7
2020-Jan-18 23:15 257 22.2
2020-Jan-18 23:02 257 22.2
2020-Jan-18 22:47 257 22.8
2020-Jan-18 22:31 257 23.3
2020-Jan-18 22:18 240 0 gusting 4 24.4
2020-Jan-18 22:02 243 1 gusting 5 25.0
2020-Jan-18 21:46 116 0 gusting 2 25.0
2020-Jan-18 21:31 113 0 gusting 5 25.0
2020-Jan-18 21:16 111 24.4
2020-Jan-18 21:02 106 0 gusting 6 24.4
2020-Jan-18 20:47 128 0 gusting 6 25.0
2020-Jan-18 20:33 111 1 gusting 7 25.0
2020-Jan-18 20:16 128 0 gusting 8 25.0
2020-Jan-18 20:01 087 1 gusting 6 25.0
2020-Jan-18 19:47 084 3 gusting 9 25.6
2020-Jan-18 19:30 163 1 gusting 9 25.0
2020-Jan-18 19:16 160 1 gusting 7 25.0
2020-Jan-18 19:01 109 2 gusting 10 24.4
2020-Jan-18 18:47 141 0 gusting 8 24.4
2020-Jan-18 18:30 117 1 gusting 6 24.4
2020-Jan-18 18:15 078 2 gusting 8 23.9
2020-Jan-18 18:00 119 1 gusting 10 23.9
2020-Jan-18 17:45 134 3 gusting 9 23.9
2020-Jan-18 17:31 093 1 gusting 7 23.3
2020-Jan-18 17:15 085 1 gusting 13 23.3
2020-Jan-18 17:00 107 2 gusting 11 22.8